Погода в Дджербе-Хумете-Суке

Тунис     33°52′20″N   10°51′25″E
темп.,
°C
ветер,
м/с
пор.,
м/с
влажн.,
%
обл.,
%
осадки,
мм/ч
давл.,
гПа
погр.,
м
7 августа, вс
вс701:00+28всв33650 0.0 1013152
04:00+28всв33630 0.0 1012147
07:00+29св45560 0.0 1013474
10:00+31ссв34520 0.0 1013699
13:00+32св55490 0.0 1012782
16:00+33всв44430 0.0 1011707
19:00+30в45570 0.0 1012176
22:00+28в33660 0.0 1013174
8 августа, пн
пн801:00+27ссв33690 0.0 1013162
04:00+27ссв33690 0.0 1012208
07:00+28ссв45650 0.0 1013541
10:00+31ссв44540 0.0 1014716
13:00+32ссв44460 0.0 1014692
16:00+33всв44430 0.0 1012679
19:00+30в56590 0.0 1013153
22:00+28в44710 0.0 1015192
9 августа, вт
вт901:00+27всв33740 0.0 1014187
04:00+27св22770 0.0 1014183
07:00+28ссв22690 0.0 1015243
10:00+31ссв33600 0.0 1015675
13:00+32ссв54520 0.0 1015737
16:00+33в33480 0.0 1013857
19:00+29в67600 0.0 1013295
22:00+28вюв45690 0.0 1015232
10 августа, ср
ср1001:00+27в44720 0.0 1014191
04:00+27в33730 0.0 1013219
07:00+28всв23670 0.0 1014314
10:00+31всв33500 0.0 1015921
13:00+32в43500 0.0 10141013
16:00+32в54510 0.0 1013836
19:00+29в78640 0.0 1012441
22:00+28вюв576346 0.0 1014340
11 августа, чт
чт1101:00+28в556038 0.0 1014536
04:00+27всв33640 0.0 1013276
07:00+28св45660 0.0 1014647
10:00+30св44560 0.0 10151121
13:00+31ссв44520 0.0 1014813
16:00+32св55500 0.0 1013618
19:00+28всв67630 0.0 1013434
22:00+27в56690 0.0 1014361